Погода в Шали

Россия / Чеченская Республика     43°08′55″N   45°54′03″E
темп.,
°C
ветер,
м/с
пор.,
м/с
влажн.,
%
обл.,
%
осадки,
мм/ч
давл.,
гПа
погр.,
м
9 мая, вс
вс900:00+12вюв11880 0.2 101117
03:00+12в118899 0.2 100915
06:00+14зсз0181100 0.0 100849
09:00+19сз226654 0.0 1008511
12:00+23ссз33514 0.0 10071272
15:00+24сз5552100 0.0 10061615
18:00+12з91591100 1.6 1013914
21:00+8з81388100 4.9 10201063
10 мая, пн
пн1000:00+7з71390100 1.3 10221163
03:00+8зюз7128394 1.8 1022943
06:00+8зюз61180100 0.8 1022836
09:00+11з695989 1.1 10221724
12:00+13з5747100 0.2 10211802
15:00+14зсз454497 0.2 10191868
18:00+12юз5663100 0.1 1020447
21:00+8юз347890 0.1 102296
11 мая, вт
вт1100:00+7ююз228294 0.0 102146
03:00+6ююз118280 0.0 102021
06:00+8юв12765 0.0 1019114
09:00+13всв555827 0.0 10171208
12:00+18св544498 0.0 10151781
15:00+17всв664983 0.0 10151297
18:00+14всв696311 0.0 1016483
21:00+8в128383 0.0 101858
12 мая, ср
ср1200:00+7юз11882 0.0 101732
03:00+7ююз11900 0.0 101717
06:00+9юз11830 0.0 1018100
09:00+14св22654 0.0 1018735
12:00+19св335621 0.0 10171201
15:00+20всв43512 0.0 10171278
18:00+17всв46650 0.0 1017326
21:00+11вюв22800 0.0 101737
13 мая, чт
чт1300:00+11ююв11844 0.0 101712
03:00+10в118646 0.0 101611
06:00+12св00815 0.0 101765
09:00+18св23620 0.0 1016533
12:00+22всв45550 0.0 1015887
15:00+24всв55545 0.0 1014980
18:00+19всв45718 0.0 1015328
21:00+14в11865 0.0 101625